Weather History for Kirksville, MO

Change the Weather History Date:

Monday, March 11, 2013

  Actual Average Record
Temperature  
Mean Temperature 28 °F 39 °F  
Max Temperature 32 °F 49 °F 79 °F (1972)
Min Temperature 24 °F 29 °F -6 °F (1948)
Degree Days  
Heating Degree Days 37 26  
Month to date heating degree days 396 313  
Since 1 July heating degree days 4776 4846  
Cooling Degree Days 0 0  
Month to date cooling degree days 0 0  
Year to date cooling degree days 0 0  
Moisture  
Dew Point 27 °F    
Average Humidity 85    
Maximum Humidity 100    
Minimum Humidity 69    
Precipitation  
Precipitation T in 0.08 in 2.38 in (1939)
Month to date precipitation 2.63 0.90  
Year to date precipitation 8.08 3.70  
Sea Level Pressure  
Sea Level Pressure 29.82 in    
Wind  
Wind Speed 12 mph (West)    
Max Wind Speed 16 mph    
Max Gust Speed 20 mph    
Visibility 8 miles    
Events Snow    
T = Trace of Precipitation, MM = Missing Value Source: NWS Daily Summary

Daily Weather History Graph

Daily Weather History Graph

Search for Another Location

Airport:

Trip Planner

Search our weather history database for the weather conditions in past years. The results will help you decide how hot, cold, wet, or windy it might be!

Date:

Astronomy

Mar. 11, 2013 Rise Set
Actual Time 7:27 AM CDT 7:13 PM CDT
Civil Twilight 7:00 AM CDT 7:40 PM CDT
Nautical Twilight 6:29 AM CDT 8:11 PM CDT
Astronomical Twilight 5:57 AM CDT 8:43 PM CDT
Moon 7:01 AM CDT (3/11) 7:25 PM CDT (3/11)
Length of Visible Light 12h 39m
Length of Day
11h 45m
Waning Crescent, 0% of the Moon is Illuminated
Mar 11
Waning Crescent
Mar 11
New
Mar 19
First Quarter
Mar 27
Full
Apr 2
Last Quarter

Hourly Weather History & Observations

Time (CDT) Temp. Windchill Dew Point Humidity Pressure Visibility Wind Dir Wind Speed Gust Speed Precip Events Conditions
12:34 AM 33.8 °F 24.8 °F 33.8 °F 100% 29.73 in 7.0 mi West 12.7 mph 18.4 mph N/A   Overcast
12:55 AM 32.0 °F 22.5 °F 32.0 °F 100% 29.76 in 6.0 mi West 12.7 mph 20.7 mph N/A   Overcast
1:52 AM 32.0 °F 24.8 °F 32.0 °F 100% 29.73 in 9.0 mi West 8.1 mph - N/A   Overcast
1:55 AM 32.0 °F 24.8 °F 32.0 °F 100% 29.76 in 8.0 mi West 8.1 mph - N/A   Overcast
2:14 AM 32.0 °F 23.6 °F 32.0 °F 100% 29.72 in 8.0 mi West 10.4 mph - N/A   Overcast
2:55 AM 32.0 °F 23.0 °F 32.0 °F 100% 29.74 in 8.0 mi West 11.5 mph 20.7 mph N/A   Overcast
3:26 AM 30.2 °F 20.2 °F 30.2 °F 100% 29.70 in 2.5 mi West 12.7 mph 19.6 mph 0.00 in Snow Light Snow
3:43 AM 30.2 °F 21.3 °F 30.2 °F 100% 29.70 in 6.0 mi West 10.4 mph - 0.00 in   Overcast
3:55 AM 30.9 °F 21.7 °F 30.9 °F 100% 29.73 in 9.0 mi West 11.5 mph 18.4 mph 0.00 in   Overcast
4:25 AM 30.2 °F 20.2 °F 30.2 °F 100% 29.69 in 10.0 mi West 12.7 mph - N/A   Overcast
4:55 AM 30.0 °F 19.5 °F 30.0 °F 100% 29.74 in 10.0 mi West 13.8 mph - N/A   Overcast
5:55 AM 30.0 °F 20.0 °F 28.0 °F 92% 29.77 in 10.0 mi West 12.7 mph 21.9 mph N/A   Overcast
6:55 AM 30.0 °F 19.5 °F 28.0 °F 92% 29.78 in 9.0 mi WNW 13.8 mph - N/A   Overcast
7:55 AM 28.9 °F 19.8 °F 27.0 °F 92% 29.79 in 8.0 mi West 10.4 mph 19.6 mph N/A   Overcast
8:55 AM 28.9 °F 18.2 °F 26.1 °F 89% 29.80 in 3.0 mi WNW 13.8 mph 21.9 mph N/A   Overcast
9:01 AM 28.4 °F 18.0 °F 26.6 °F 93% 29.77 in 1.8 mi WNW 12.7 mph 21.9 mph 0.00 in Snow Light Snow
9:23 AM 28.4 °F 16.6 °F 26.6 °F 93% 29.77 in 3.0 mi WNW 16.1 mph 24.2 mph 0.00 in Snow Light Snow
9:55 AM 28.0 °F 15.7 °F 26.1 °F 92% 29.81 in 8.0 mi WNW 17.3 mph 24.2 mph 0.00 in   Overcast
10:55 AM 28.9 °F 18.2 °F 26.1 °F 89% 29.82 in 10.0 mi WNW 13.8 mph 24.2 mph N/A   Overcast
11:55 AM 30.0 °F 17.9 °F 25.0 °F 82% 29.84 in 10.0 mi West 18.4 mph 23.0 mph N/A   Overcast
12:55 PM 30.0 °F 18.3 °F 25.0 °F 82% 29.85 in 10.0 mi West 17.3 mph 25.3 mph N/A   Overcast
1:17 PM 30.2 °F 19.8 °F 26.6 °F 86% 29.81 in 10.0 mi West 13.8 mph 24.2 mph N/A   Overcast
1:55 PM 30.9 °F 20.7 °F 26.1 °F 82% 29.84 in 10.0 mi WNW 13.8 mph 21.9 mph N/A   Overcast
2:55 PM 32.0 °F 21.2 °F 27.0 °F 82% 29.85 in 10.0 mi West 16.1 mph 25.3 mph N/A   Overcast
3:55 PM 32.0 °F 22.1 °F 27.0 °F 82% 29.86 in 10.0 mi West 13.8 mph - N/A   Overcast
4:55 PM 30.9 °F 19.8 °F 25.0 °F 79% 29.89 in 10.0 mi West 16.1 mph - N/A   Overcast
5:41 PM 30.2 °F 20.2 °F 24.8 °F 80% 29.85 in 10.0 mi West 12.7 mph - N/A   Overcast
5:55 PM 30.2 °F 20.8 °F 24.8 °F 80% 29.86 in 10.0 mi WNW 11.5 mph - N/A   Overcast
6:55 PM 30.9 °F 22.2 °F 23.0 °F 72% 29.93 in 10.0 mi West 10.4 mph - N/A   Overcast
7:55 PM 30.0 °F 22.4 °F 21.9 °F 72% 29.95 in 10.0 mi West 8.1 mph - N/A   Mostly Cloudy
8:19 PM 28.4 °F 21.2 °F 21.2 °F 74% 29.90 in 10.0 mi West 6.9 mph - N/A   Scattered Clouds
8:55 PM 28.9 °F 21.1 °F 21.9 °F 75% 29.97 in 10.0 mi West 8.1 mph - N/A   Clear
9:55 PM 28.0 °F 20.0 °F 21.9 °F 78% 29.98 in 10.0 mi WNW 8.1 mph - N/A   Clear
10:55 PM 27.0 °F 20.5 °F 21.0 °F 78% 30.00 in 10.0 mi WNW 5.8 mph - N/A   Scattered Clouds
11:55 PM 25.0 °F 16.3 °F 19.9 °F 81% 30.01 in 10.0 mi WNW 8.1 mph - N/A   Clear